Location: Santa Fe
(35.6870°N, 105.9370°W)
Time: 19:53:45
(UTC-06:00)

Amateur Radio Satellites - All Passes

Search period start: 31 October 2014 19:23
Search period end: 01 November 2014 19:23
Location: Santa Fe, 35.6870°N, 105.9370°W

Satellite Date Start Highest point End Downlink Frequencies (MHz)
Time Altitude Azimuth
OPAL 31 Oct 19:25:01 19:29:09 27° 293° (WNW) 19:33:17 ?
STRAND 1 31 Oct 19:42:21 19:47:26 59° 101° (E) 19:52:29 ?
RS-15 31 Oct 19:47:28 19:56:02 27° 103° (ESE) 20:04:27 29.354 - 29.394 USB, Beacon 29.352 USB
HO-68 31 Oct 19:53:28 19:58:46 23° 61° (ENE) 20:04:04 435.675 MHz FM
SO-50 31 Oct 20:22:59 20:27:50 66° 59° (ENE) 20:32:41 436.795 FM
KITSAT 1 31 Oct 20:24:02 20:32:07 72° 61° (ENE) 20:40:09 435.175 FM
SO-67 31 Oct 20:32:02 20:33:07 11° 267° (W) 20:34:12 435.3500 MHz FM
Oscar 11 31 Oct 21:00:42 21:03:15 16° 67° (ENE) 21:05:48 145.825 FM, Beacon 2401.500 USB
UOSAT-12 31 Oct 21:05:56 21:09:14 19° 48° (NE) 21:12:29 437.025 FM, 437.400 FM
FUNcube-1 31 Oct 21:19:59 21:21:04 11° 65° (ENE) 21:22:09 145.950 - 145.970 MHz USB
MaSat-1 31 Oct 21:21:02 21:23:53 19° 107° (ESE) 21:26:35 437.345 MHz
STRAND 1 31 Oct 21:23:14 21:26:05 15° 296° (WNW) 21:28:55 ?
HO-68 31 Oct 21:38:46 21:45:50 64° 257° (WSW) 21:52:59 435.675 MHz FM
RS-15 31 Oct 21:56:19 22:07:18 72° 302° (WNW) 22:18:15 29.354 - 29.394 USB, Beacon 29.352 USB
UKube-1 31 Oct 21:59:59 22:04:20 85° 76° (ENE) 22:08:43 145.840 MHz, 145.915 MHz
SO-50 31 Oct 22:05:47 22:07:49 13° 253° (WSW) 22:09:52 436.795 FM
ZACube-1 31 Oct 22:09:55 22:14:10 41° 73° (ENE) 22:18:21 437.345 MHz
KITSAT 1 31 Oct 22:21:02 22:26:41 21° 257° (WSW) 22:32:20 435.175 FM
Oscar 11 31 Oct 22:35:02 22:39:04 39° 262° (W) 22:43:08 145.825 FM, Beacon 2401.500 USB
UOSAT-12 31 Oct 22:45:07 22:49:39 49° 245° (WSW) 22:54:05 437.025 FM, 437.400 FM
FUNcube-1 31 Oct 22:52:23 22:56:54 65° 259° (W) 23:01:20 145.950 - 145.970 MHz USB
MaSat-1 31 Oct 22:55:53 22:59:08 25° 298° (WNW) 23:02:08 437.345 MHz
ZACube-1 31 Oct 23:47:55 23:50:40 16° 266° (W) 23:53:24 437.345 MHz
RS-15 01 Nov 00:14:17 00:22:01 21° 328° (NNW) 00:29:50 29.354 - 29.394 USB, Beacon 29.352 USB
Oscar 16 01 Nov 01:24:38 01:27:18 14° 92° (E) 01:29:56 437.025 USB, Beacon 2401.1428
Sapphire 01 Nov 01:32:41 01:37:05 26° 107° (ESE) 01:41:32 437.095 MHz 1200 baud AX-25 AFSK
PCSat 01 Nov 01:53:25 01:58:32 46° 111° (ESE) 02:03:42 145.825 MHz
AO-Echo 01 Nov 01:54:49 01:57:51 15° 92° (E) 02:00:50 ?
Uribyol 2 01 Nov 01:59:17 02:01:16 12° 91° (E) 02:03:15 436.500 FM
ITAMSAT 1 01 Nov 02:06:49 02:09:28 14° 92° (E) 02:12:06 435.822 SSB
JAS-1B 01 Nov 02:08:22 02:15:33 48° 101° (E) 02:23:58 435.800 - 435.900 CW/SSB
Oscar 19 01 Nov 02:14:48 02:19:44 47° 100° (E) 02:24:38 437.125 CW, 437.150 USB
RS-15 01 Nov 02:36:42 02:40:51 12° 6° (N) 02:45:02 29.354 - 29.394 USB, Beacon 29.352 USB
AO-27 01 Nov 02:52:43 02:57:41 43° 99° (E) 03:02:36 436.795 MHz FM
Oscar 16 01 Nov 03:01:56 03:06:57 57° 287° (WNW) 03:11:57 437.025 USB, Beacon 2401.1428
Gurwin Techsat 1B 01 Nov 03:11:51 03:16:40 34° 97° (E) 03:21:27 435.225 FM
Sapphire 01 Nov 03:15:20 03:20:18 37° 303° (WNW) 03:25:18 437.095 MHz 1200 baud AX-25 AFSK
TMSAT-1 01 Nov 03:18:00 03:22:33 29° 96° (E) 03:27:04 436.925 FM
AO-Echo 01 Nov 03:31:42 03:36:55 57° 287° (WNW) 03:42:02 ?
Uribyol 2 01 Nov 03:36:00 03:41:09 67° 286° (WNW) 03:46:16 436.500 FM
PCSat 01 Nov 03:37:54 03:42:08 23° 308° (NW) 03:46:25 145.825 MHz
ITAMSAT 1 01 Nov 03:44:10 03:49:18 59° 287° (WNW) 03:54:23 435.822 SSB
Oscar 19 01 Nov 03:55:15 03:58:40 18° 294° (WNW) 04:02:06 437.125 CW, 437.150 USB
AO-7 01 Nov 03:56:28 04:01:52 18° 93° (E) 04:07:13 29.400 - 29.500 MHz
JAS-1B 01 Nov 03:59:32 04:05:53 34° 292° (WNW) 04:13:15 435.800 - 435.900 CW/SSB
PANSAT 01 Nov 04:20:09 04:23:12 22° 170° (S) 04:26:14 not established
AO-27 01 Nov 04:33:04 04:36:50 21° 294° (WNW) 04:40:36 436.795 MHz FM
RS-15 01 Nov 04:49:18 04:58:44 30° 41° (NE) 05:08:24 29.354 - 29.394 USB, Beacon 29.352 USB
Gurwin Techsat 1B 01 Nov 04:52:07 04:56:26 26° 292° (WNW) 05:00:45 435.225 FM
Saudisat 1A 01 Nov 04:53:57 04:57:20 22° 111° (ESE) 05:00:45 436.775 MHz
TMSAT-1 01 Nov 04:57:48 05:02:23 31° 291° (WNW) 05:06:57 436.925 FM
OPAL 01 Nov 04:58:04 05:02:47 39° 69° (ENE) 05:07:28 ?
Uosat F 01 Nov 05:23:40 05:28:42 66° 102° (ESE) 05:33:40 435.120 FM
JAS-2 01 Nov 05:34:41 05:41:31 32° 94° (E) 05:48:01 435.800 - 435.900 CW/SSB, 435.910 FM
AO-7 01 Nov 05:47:00 05:55:20 80° 289° (WNW) 06:03:41 29.400 - 29.500 MHz
PANSAT 01 Nov 05:59:36 06:02:54 27° 182° (S) 06:06:11 not established
Hamsat 01 Nov 06:05:23 06:08:46 23° 96° (E) 06:12:10 145.90 MHz
Saudisat 1A 01 Nov 06:32:48 06:36:42 31° 306° (NW) 06:40:39 436.775 MHz
OPAL 01 Nov 06:37:55 06:41:44 21° 263° (W) 06:45:32 ?
STRAND 1 01 Nov 06:55:17 07:00:21 63° 74° (ENE) 07:05:27 ?
RS-15 01 Nov 07:01:04 07:12:20 81° 244° (WSW) 07:24:07 29.354 - 29.394 USB, Beacon 29.352 USB
Uosat F 01 Nov 07:04:33 07:06:52 13° 297° (WNW) 07:09:11 435.120 FM
JAS-2 01 Nov 07:19:07 07:26:37 50° 290° (WNW) 07:33:48 435.800 - 435.900 CW/SSB, 435.910 FM
PANSAT 01 Nov 07:39:56 07:42:33 18° 195° (SSW) 07:45:09 not established
Hamsat 01 Nov 07:41:11 07:44:36 24° 289° (WNW) 07:48:03 145.90 MHz
AO-7 01 Nov 07:42:16 07:46:50 16° 307° (NW) 07:51:23 29.400 - 29.500 MHz
SO-67 01 Nov 07:55:21 07:58:45 56° 100° (E) 08:02:07 435.3500 MHz FM
STRAND 1 01 Nov 08:37:41 08:39:55 13° 268° (W) 08:42:09 ?
MaSat-1 01 Nov 08:43:09 08:44:34 14° 254° (WSW) 08:45:57 437.345 MHz
KITSAT 1 01 Nov 09:00:25 09:02:25 11° 99° (E) 09:04:25 435.175 FM
HO-68 01 Nov 09:10:16 09:16:23 30° 97° (E) 09:22:27 435.675 MHz FM
RS-15 01 Nov 09:16:55 09:23:02 16° 261° (W) 09:29:18 29.354 - 29.394 USB, Beacon 29.352 USB
ISS 01 Nov 09:22:15 09:25:25 44° 134° (SE) 09:28:36 145.800 FM
UKube-1 01 Nov 09:52:08 09:55:07 18° 95° (E) 09:58:04 145.840 MHz, 145.915 MHz
Sapphire 01 Nov 10:24:17 10:26:58 14° 47° (NE) 10:29:38 437.095 MHz 1200 baud AX-25 AFSK
Oscar 11 01 Nov 10:25:16 10:29:24 44° 99° (E) 10:33:30 145.825 FM, Beacon 2401.500 USB
SO-50 01 Nov 10:35:20 10:39:30 40° 114° (ESE) 10:43:47 436.795 FM
PCSat 01 Nov 10:44:48 10:48:55 21° 52° (NE) 10:53:00 145.825 MHz
FUNcube-1 01 Nov 10:44:54 10:48:31 28° 97° (E) 10:52:04 145.950 - 145.970 MHz USB
KITSAT 1 01 Nov 10:48:25 10:56:27 75° 114° (ESE) 11:04:31 435.175 FM
HO-68 01 Nov 10:57:24 11:04:11 47° 292° (WNW) 11:10:57 435.675 MHz FM
ISS 01 Nov 10:59:47 11:02:15 19° 330° (NNW) 11:04:44 145.800 FM
UKube-1 01 Nov 11:27:25 11:31:20 33° 289° (WNW) 11:35:14 145.840 MHz, 145.915 MHz
ZACube-1 01 Nov 11:38:09 11:42:17 61° 285° (WNW) 11:46:21 437.345 MHz
Oscar 11 01 Nov 12:02:55 12:05:10 14° 293° (WNW) 12:07:26 145.825 FM, Beacon 2401.500 USB
Sapphire 01 Nov 12:05:38 12:11:05 86° 245° (WSW) 12:16:30 437.095 MHz 1200 baud AX-25 AFSK
SO-50 01 Nov 12:16:50 12:20:12 20° 311° (NW) 12:23:39 436.795 FM
FUNcube-1 01 Nov 12:21:42 12:24:41 19° 291° (WNW) 12:27:39 145.950 - 145.970 MHz USB
PCSat 01 Nov 12:27:21 12:32:35 50° 249° (WSW) 12:37:46 145.825 MHz
Oscar 16 01 Nov 12:38:56 12:42:07 17° 65° (ENE) 12:45:18 437.025 USB, Beacon 2401.1428
KITSAT 1 01 Nov 12:46:14 12:52:36 25° 314° (NW) 12:59:00 435.175 FM
UOSAT-12 01 Nov 12:52:58 12:57:35 83° 300° (WNW) 13:02:18 437.025 FM, 437.400 FM
JAS-1B 01 Nov 12:53:50 12:58:14 23° 65° (ENE) 13:02:37 435.800 - 435.900 CW/SSB
AO-Echo 01 Nov 13:05:30 13:08:13 15° 63° (ENE) 13:10:58 ?
Uribyol 2 01 Nov 13:14:09 13:17:07 15° 64° (ENE) 13:20:05 436.500 FM
ITAMSAT 1 01 Nov 13:22:00 13:25:19 17° 65° (ENE) 13:28:39 435.822 SSB
Saudisat 1A 01 Nov 13:25:11 13:25:43 10° 43° (NE) 13:26:15 436.775 MHz
Oscar 19 01 Nov 13:28:47 13:33:44 51° 73° (ENE) 13:38:41 437.125 CW, 437.150 USB
AO-27 01 Nov 14:07:55 14:12:56 49° 72° (ENE) 14:17:58 436.795 MHz FM
Oscar 16 01 Nov 14:16:00 14:21:00 52° 260° (W) 14:26:02 437.025 USB, Beacon 2401.1428
Gurwin Techsat 1B 01 Nov 14:30:03 14:35:00 41° 71° (ENE) 14:39:57 435.225 FM
TMSAT-1 01 Nov 14:35:54 14:40:37 34° 70° (ENE) 14:45:22 436.925 FM
UOSAT-12 01 Nov 14:37:19 14:38:28 11° 318° (NW) 14:39:37 437.025 FM, 437.400 FM
AO-Echo 01 Nov 14:41:30 14:46:23 59° 260° (W) 14:51:28 ?
JAS-1B 01 Nov 14:43:21 14:48:42 38° 261° (W) 14:53:58 435.800 - 435.900 CW/SSB
Uribyol 2 01 Nov 14:50:54 14:56:03 59° 259° (W) 15:01:13 436.500 FM
AO-7 01 Nov 14:52:56 14:58:48 22° 56° (ENE) 15:04:39 29.400 - 29.500 MHz
ITAMSAT 1 01 Nov 14:59:16 15:04:20 52° 260° (W) 15:09:27 435.822 SSB
Saudisat 1A 01 Nov 15:01:29 15:05:56 88° 61° (ENE) 15:10:20 436.775 MHz
Oscar 19 01 Nov 15:10:13 15:13:19 16° 267° (W) 15:16:25 437.125 CW, 437.150 USB
AO-27 01 Nov 15:49:19 15:52:40 17° 267° (W) 15:56:01 436.795 MHz FM
ISS 01 Nov 15:53:39 15:56:09 19° 30° (NNE) 15:58:38 145.800 FM
Gurwin Techsat 1B 01 Nov 16:11:07 16:15:04 21° 266° (W) 16:19:02 435.225 FM
TMSAT-1 01 Nov 16:16:11 16:20:31 26° 264° (W) 16:24:53 436.925 FM
Uosat F 01 Nov 16:33:56 16:38:54 66° 74° (ENE) 16:43:55 435.120 FM
AO-7 01 Nov 16:42:25 16:50:41 78° 254° (WSW) 16:59:00 29.400 - 29.500 MHz
Hamsat 01 Nov 16:57:46 16:59:21 12° 66° (ENE) 17:00:56 145.90 MHz
OPAL 01 Nov 17:13:00 17:14:52 12° 94° (E) 17:16:44 ?
JAS-2 01 Nov 17:27:04 17:33:10 59° 72° (ENE) 17:40:06 435.800 - 435.900 CW/SSB, 435.910 FM
ISS 01 Nov 17:29:47 17:32:59 44° 226° (SW) 17:36:10 145.800 FM
Uosat F 01 Nov 18:16:25 18:18:05 12° 269° (W) 18:19:46 435.120 FM
SO-67 01 Nov 18:26:59 18:28:17 12° 69° (ENE) 18:29:36 435.3500 MHz FM
Hamsat 01 Nov 18:30:48 18:34:50 48° 261° (W) 18:38:53 145.90 MHz
AO-7 01 Nov 18:41:56 18:44:32 12° 270° (W) 18:47:09 29.400 - 29.500 MHz
KITSAT 1 01 Nov 18:45:44 18:51:58 24° 45° (NE) 18:58:09 435.175 FM
OPAL 01 Nov 18:49:13 18:54:06 63° 288° (WNW) 18:58:59 ?
STRAND 1 01 Nov 19:09:27 19:13:47 27° 96° (E) 19:18:03 ?
SO-50 01 Nov 19:09:57 19:13:34 20° 49° (NE) 19:17:12 436.795 FM
JAS-2 01 Nov 19:14:18 19:18:46 20° 271° (W) 19:23:38 435.800 - 435.900 CW/SSB, 435.910 FM
